Flag for Ukraine Weather past 2 weeks in Luhansk, Ukraine

Now
64 °F

Partly sunny.


Feels Like: 64 °F
Forecast: 56 / 84 °F
Wind: 6 mph from Northeast

Location: Rostov-Na-Donu

Current Time: Aug 20, 2014 at 8:27:55 AM

Latest Report: Aug 20, 2014 at 7:30 AM


Visibility: N/A

Pressure: 30.04 "Hg

Humidity: 83%

Dew point: 59 °F

Location of LuhanskLocation

Historic Weather in Luhansk — Graph

°F

Luhansk temperature yesterday

Maximum temperature yesterday: 73 °F (at 12:00 PM)
Minimum temperature yesterday: 63 °F (at 5:00 AM)
Average temperature yesterday: 69 °F

Past Weeks' High & Low Weather Summary

 TemperatureHumidityPressure
High100 °F (Aug 15, 1:00 PM)88% (Aug 7, 6:00 AM)30.04 "Hg (Aug 7, 6:00 AM)
Low59 °F (Aug 20, 5:00 AM)13% (Aug 15, 1:30 PM)29.56 "Hg (Aug 18, 3:00 PM)
Average80 °F46%29.82 "Hg
* Reported Aug 5 7:00 AM — Aug 20 7:30 AM, Luhansk, Weather by CustomWeather, © 2014

Note: Actual official high and low records may vary slightly from our data, if they occured in-between our weather recording intervals... More about our weather records

Advertising

Luhansk weather history for previous 24 hours

 ConditionsComfort  
Time TempWeatherWind HumidityBarometerVisibility
7:30 AM
Aug 20
64 °FPartly sunny.6 mph83%30.04 "HgN/A
7:00 AM63 °FPassing clouds.3 mph83%30.04 "HgN/A
6:30 AM61 °FSunny.6 mph88%30.04 "Hg10 mi
6:00 AM59 °FPassing clouds.3 mph88%30.04 "HgN/A
5:30 AM59 °FPassing clouds.6 mph88%30.01 "HgN/A
5:00 AM59 °FClear.8 mph88%30.01 "Hg10 mi
4:30 AM61 °FClear.6 mph83%30.01 "Hg10 mi
4:00 AM61 °FPassing clouds.3 mph83%30.01 "HgN/A
3:30 AM61 °FClear.1 mph83%30.01 "Hg10 mi
3:00 AM61 °FPassing clouds.6 mph83%30.01 "HgN/A
2:30 AM63 °FClear.8 mph83%29.98 "Hg10 mi
2:00 AM63 °FClear.3 mph83%30.01 "Hg10 mi
1:30 AM63 °FPassing clouds.3 mph83%30.01 "HgN/A
1:00 AM63 °FClear.3 mph83%30.01 "Hg10 mi
12:30 AM63 °FClear.No wind83%30.01 "Hg10 mi
12:00 AM64 °FClear.6 mph78%30.01 "Hg10 mi
11:30 PM
Aug 19
64 °FClear.3 mph78%30.01 "Hg10 mi
11:00 PM64 °FClear.3 mph78%30.01 "Hg10 mi
10:30 PM64 °FClear.1 mph78%30.01 "Hg10 mi
10:00 PM66 °FPassing clouds.3 mph73%29.98 "HgN/A
9:30 PM66 °FPassing clouds.3 mph78%29.98 "HgN/A
9:00 PM68 °FPartly cloudy.6 mph73%29.98 "HgN/A
8:30 PM68 °FPartly cloudy.8 mph69%29.98 "HgN/A
8:00 PM70 °FBroken clouds.8 mph69%29.95 "HgN/A
7:30 PM70 °FBroken clouds.6 mph69%29.95 "HgN/A
7:00 PM70 °FMore clouds than sun.3 mph69%29.95 "HgN/A
6:30 PM72 °FMore clouds than sun.3 mph65%29.95 "HgN/A
6:00 PM72 °FMore clouds than sun.3 mph65%29.95 "HgN/A
5:30 PM72 °FMore clouds than sun.6 mph65%29.92 "HgN/A
5:00 PM72 °FMostly cloudy.3 mph65%29.92 "HgN/A
4:30 PM72 °FMore clouds than sun.6 mph65%29.92 "HgN/A
4:00 PM72 °FBroken clouds.3 mph65%29.92 "HgN/A
3:30 PM72 °FBroken clouds.6 mph65%29.92 "HgN/A
3:00 PM72 °FBroken clouds.8 mph65%29.92 "HgN/A
2:30 PM73 °FBroken clouds.8 mph61%29.92 "HgN/A
2:00 PM73 °FBroken clouds.10 mph61%29.92 "HgN/A
1:30 PM72 °FBroken clouds.8 mph65%29.92 "HgN/A
1:00 PM73 °FBroken clouds.8 mph61%29.92 "HgN/A
12:30 PM73 °FBroken clouds.8 mph61%29.92 "HgN/A
12:00 PM73 °FBroken clouds.8 mph65%29.92 "HgN/A
11:30 AM72 °FPartly sunny.6 mph69%29.89 "HgN/A
11:00 AM72 °FPartly sunny.3 mph69%29.89 "HgN/A
10:30 AM72 °FPartly sunny.6 mph69%29.89 "HgN/A
10:00 AM72 °FBroken clouds.6 mph69%29.89 "HgN/A
9:30 AM70 °FBroken clouds.6 mph73%29.89 "HgN/A
9:00 AM72 °FBroken clouds.3 mph69%29.86 "HgN/A
8:30 AM70 °FBroken clouds.6 mph73%29.86 "HgN/A
8:00 AM68 °FPartly sunny.6 mph78%29.86 "HgN/A
Weather by CustomWeather, © 2014

See weather overviewHow to use our weather pages